Weather History for Auburn, CA

Change the Weather History Date:

Thursday, January 10, 2013

  Actual Average Record
Temperature  
Mean Temperature 38 °F -  
Max Temperature 44 °F 51 °F 120 °F (2012)
Min Temperature 32 °F 37 °F 22 °F (1949)
Degree Days  
Heating Degree Days 27    
Moisture  
Dew Point 33 °F    
Average Humidity 86    
Maximum Humidity 100    
Minimum Humidity 57    
Precipitation  
Precipitation 0.00 in - - ()
Sea Level Pressure  
Sea Level Pressure 30.04 in    
Wind  
Wind Speed 3 mph (NNW)    
Max Wind Speed 9 mph    
Max Gust Speed -    
Visibility 10 miles    
Events      
Averages and records for this station are not official NWS values.
T = Trace of Precipitation, MM = Missing Value Source: NWS Daily Summary

Daily Weather History Graph

Daily Weather History Graph

Search for Another Location

Airport:

Trip Planner

Search our weather history database for the weather conditions in past years. The results will help you decide how hot, cold, wet, or windy it might be!

Date:

Astronomy

Jan. 10, 2013 Rise Set
Actual Time 7:22 AM PST 5:01 PM PST
Civil Twilight 6:53 AM PST 5:31 PM PST
Nautical Twilight 6:20 AM PST 6:04 PM PST
Astronomical Twilight 5:48 AM PST 6:36 PM PST
Moon 6:07 AM PST (1/10) 4:15 PM PST (1/10)
Length of Visible Light 10h 37m
Length of Day
9h 38m
Waning Crescent, 1% of the Moon is Illuminated
Jan 10
Waning Crescent
Jan 11
New
Jan 18
First Quarter
Jan 26
Full
Feb 3
Last Quarter

Hourly Weather History & Observations

Time (PST) Temp. Windchill Dew Point Humidity Pressure Visibility Wind Dir Wind Speed Gust Speed Precip Events Conditions
12:15 AM 35.6 °F - 35.6 °F 100% 29.99 in 8.0 mi Calm Calm - 0.01 in   Mostly Cloudy
12:35 AM 35.6 °F - 35.6 °F 100% 29.99 in 8.0 mi Calm Calm - 0.01 in   Mostly Cloudy
1:15 AM 37.4 °F - 35.6 °F 93% 30.00 in 9.0 mi Calm Calm - N/A   Mostly Cloudy
1:35 AM 37.4 °F 33.8 °F 37.4 °F 100% 30.00 in 10.0 mi SE 4.6 mph - N/A   Mostly Cloudy
2:15 AM 37.4 °F 34.9 °F 37.4 °F 100% 30.01 in 10.0 mi SE 3.5 mph - N/A   Overcast
2:35 AM 37.4 °F 33.8 °F 37.4 °F 100% 30.01 in 9.0 mi SE 4.6 mph - N/A   Overcast
2:55 AM 37.4 °F 33.8 °F 35.6 °F 93% 30.01 in 10.0 mi SE 4.6 mph - N/A   Scattered Clouds
3:15 AM 35.6 °F 31.7 °F 35.6 °F 100% 30.02 in 10.0 mi ESE 4.6 mph - N/A   Partly Cloudy
3:35 AM 35.6 °F 30.7 °F 35.6 °F 100% 30.02 in 10.0 mi ESE 5.8 mph - N/A   Mostly Cloudy
3:55 AM 35.6 °F - 35.6 °F 100% 30.02 in 10.0 mi Calm Calm - N/A   Mostly Cloudy
4:15 AM 35.6 °F - 35.6 °F 100% 30.01 in 10.0 mi Calm Calm - N/A   Mostly Cloudy
4:35 AM 35.6 °F 32.8 °F 33.8 °F 93% 30.01 in 10.0 mi ESE 3.5 mph - N/A   Scattered Clouds
4:55 AM 35.6 °F - 35.6 °F 100% 30.01 in 10.0 mi Calm Calm - N/A   Partly Cloudy
5:15 AM 35.6 °F - 33.8 °F 93% 30.01 in 10.0 mi Calm Calm - N/A   Clear
5:35 AM 33.8 °F 27.7 °F 33.8 °F 100% 30.01 in 10.0 mi ESE 6.9 mph - N/A   Clear
5:55 AM 33.8 °F 27.7 °F 33.8 °F 100% 30.02 in 10.0 mi East 6.9 mph - N/A   Clear
6:15 AM 33.8 °F 27.7 °F 33.8 °F 100% 30.01 in 10.0 mi East 6.9 mph - N/A   Clear
6:35 AM 33.8 °F 27.7 °F 33.8 °F 100% 30.02 in 10.0 mi ESE 6.9 mph - N/A   Clear
7:15 AM 33.8 °F 29.6 °F 32.0 °F 93% 30.03 in 10.0 mi East 4.6 mph - N/A   Clear
7:35 AM 33.8 °F 30.8 °F 32.0 °F 93% 30.03 in 10.0 mi East 3.5 mph - N/A   Clear
7:55 AM 33.8 °F - 32.0 °F 93% 30.04 in 10.0 mi Calm Calm - N/A   Clear
8:15 AM 33.8 °F - 33.8 °F 100% 30.04 in 10.0 mi Calm Calm - N/A   Clear
8:35 AM 35.6 °F 32.8 °F 33.8 °F 93% 30.05 in 10.0 mi East 3.5 mph - N/A   Clear
9:15 AM 37.4 °F - 33.8 °F 87% 30.06 in 10.0 mi Calm Calm - N/A   Clear
9:35 AM 39.2 °F 37.0 °F 35.6 °F 87% 30.06 in 10.0 mi East 3.5 mph - N/A   Clear
10:15 AM 41.0 °F - 33.8 °F 76% 30.07 in 10.0 mi Calm Calm - N/A   Clear
10:35 AM 42.8 °F - 33.8 °F 70% 30.06 in 10.0 mi Calm Calm - N/A   Clear
10:55 AM 42.8 °F 40.1 °F 32.0 °F 66% 30.06 in 10.0 mi NW 4.6 mph - N/A   Clear
11:15 AM 42.8 °F 38.6 °F 32.0 °F 66% 30.06 in 10.0 mi NW 6.9 mph - N/A   Clear
11:35 AM 44.6 °F 40.2 °F 33.8 °F 66% 30.05 in 10.0 mi WNW 8.1 mph - N/A   Scattered Clouds
11:55 AM 42.8 °F 38.6 °F 32.0 °F 66% 30.04 in 10.0 mi WNW 6.9 mph - N/A   Scattered Clouds
12:15 PM 44.6 °F 40.7 °F 32.0 °F 61% 30.03 in 10.0 mi WNW 6.9 mph - N/A   Partly Cloudy
12:35 PM 44.6 °F 40.2 °F 32.0 °F 61% 30.03 in 10.0 mi West 8.1 mph - N/A   Partly Cloudy
12:55 PM 44.6 °F 40.2 °F 32.0 °F 61% 30.03 in 10.0 mi WNW 8.1 mph - N/A   Scattered Clouds
1:15 PM 44.6 °F 40.2 °F 32.0 °F 61% 30.03 in 10.0 mi West 8.1 mph - N/A   Clear
1:35 PM 44.6 °F 39.7 °F 32.0 °F 61% 30.02 in 10.0 mi WNW 9.2 mph - N/A   Clear
1:55 PM 44.6 °F 41.4 °F 32.0 °F 61% 30.02 in 10.0 mi WNW 5.8 mph - N/A   Clear
2:15 PM 44.6 °F 39.7 °F 32.0 °F 61% 30.03 in 10.0 mi WNW 9.2 mph - N/A   Clear
2:35 PM 44.6 °F 39.7 °F 32.0 °F 61% 30.03 in 10.0 mi WNW 9.2 mph - N/A   Clear
2:55 PM 44.6 °F 40.7 °F 32.0 °F 61% 30.03 in 10.0 mi WNW 6.9 mph - N/A   Clear
3:15 PM 44.6 °F 40.2 °F 30.2 °F 57% 30.03 in 10.0 mi WNW 8.1 mph - N/A   Clear
3:35 PM 42.8 °F 39.3 °F 30.2 °F 61% 30.03 in 10.0 mi NW 5.8 mph - N/A   Clear
4:15 PM 42.8 °F 39.3 °F 32.0 °F 66% 30.04 in 10.0 mi WNW 5.8 mph - N/A   Clear
4:35 PM 41.0 °F 38.0 °F 32.0 °F 70% 30.03 in 10.0 mi WNW 4.6 mph - N/A   Clear
4:55 PM 39.2 °F 35.0 °F 32.0 °F 75% 30.04 in 10.0 mi WNW 5.8 mph - N/A   Clear
5:15 PM 39.2 °F - 30.2 °F 70% 30.04 in 10.0 mi Calm Calm - N/A   Clear
5:35 PM 35.6 °F - 32.0 °F 87% 30.05 in 10.0 mi Calm Calm - N/A   Clear
5:55 PM 35.6 °F - 32.0 °F 87% 30.06 in 10.0 mi Calm Calm - N/A   Clear
6:15 PM 35.6 °F - 32.0 °F 87% 30.06 in 10.0 mi Calm Calm - N/A   Clear
6:35 PM 33.8 °F - 32.0 °F 93% 30.06 in 10.0 mi Calm Calm - N/A   Clear
6:55 PM 32.0 °F - 32.0 °F 100% 30.07 in 10.0 mi Calm Calm - N/A   Clear
7:15 PM 32.0 °F - 32.0 °F 100% 30.07 in 10.0 mi Calm Calm - N/A   Clear
7:35 PM 32.0 °F - 30.2 °F 93% 30.07 in 10.0 mi Calm Calm - N/A   Clear
7:55 PM 32.0 °F - 32.0 °F 100% 30.07 in 10.0 mi Calm Calm - N/A   Clear
8:15 PM 32.0 °F - 30.2 °F 93% 30.08 in 10.0 mi Calm Calm - N/A   Clear
8:35 PM 32.0 °F - 30.2 °F 93% 30.08 in 10.0 mi Calm Calm - N/A   Clear
8:55 PM 32.0 °F - 32.0 °F 100% 30.08 in 10.0 mi Calm Calm - N/A   Clear
9:15 PM 32.0 °F - 30.2 °F 93% 30.09 in 10.0 mi Calm Calm - N/A   Clear
9:35 PM 32.0 °F - 30.2 °F 93% 30.09 in 10.0 mi Calm Calm - N/A   Clear
9:55 PM 32.0 °F - 30.2 °F 93% 30.10 in 10.0 mi Calm Calm - N/A   Clear
10:15 PM 32.0 °F - 30.2 °F 93% 30.10 in 10.0 mi Calm Calm - N/A   Clear
10:35 PM 32.0 °F - 30.2 °F 93% 30.10 in 10.0 mi Calm Calm - N/A   Partly Cloudy
10:55 PM 32.0 °F - 30.2 °F 93% 30.11 in 10.0 mi Calm Calm - N/A   Partly Cloudy
11:15 PM 32.0 °F - 30.2 °F 93% 30.11 in 10.0 mi Calm Calm - N/A   Clear
11:35 PM 32.0 °F - 30.2 °F 93% 30.10 in 10.0 mi Calm Calm - N/A   Clear
11:55 PM 32.0 °F 27.5 °F 30.2 °F 93% 30.10 in 10.0 mi East 4.6 mph - N/A   Clear